Farmington, MO

8:43 PM CDT on October 13, 2019 (GMT -0500)
Farmington Regional

Weather History for KFAM - August, 2019

Change the Weather History Date:

Wednesday, August 21, 2019

  Actual Average Record
Temperature  
Mean Temperature 78 °F -  
Max Temperature 91 °F 84 °F 96 °F (2003)
Min Temperature 66 °F 63 °F 51 °F (2012)
Cooling Degree Days 13    
Growing Degree Days 28 (Base 50)    
Moisture  
Dew Point 70 °F    
Average Humidity 80    
Maximum Humidity 100    
Minimum Humidity 61    
Precipitation  
Precipitation 0.32 in - - ()
Sea Level Pressure  
Sea Level Pressure 30.03 in    
Wind  
Wind Speed 4 mph ()    
Max Wind Speed 14 mph    
Max Gust Speed 21 mph    
Visibility 9.6 miles    
Events Rain , Thunderstorm    
Averages and records for this station are not official NWS values.
T = Trace of Precipitation, MM = Missing Value Source: Averaged Metar Reports

Daily Weather History Graph

Daily Weather History Graph

Search for Another Location

Airport or City:

Astronomy

Aug. 21, 2019 Rise Set
Actual Time 6:22 AM CDT 7:46 PM CDT
Civil Twilight 5:54 AM CDT 8:14 PM CDT
Nautical Twilight 5:21 AM CDT 8:47 PM CDT
Astronomical Twilight 4:46 AM CDT 9:21 PM CDT
Moon 11:10 PM CDT (8/21) 11:52 AM CDT (8/21)
Length of Visible Light 14h 19m
Length of Day
13h 24m
Waning Gibbous, 69% of the Moon is Illuminated
Aug 21
Waning Gibbous
Aug 23
Last Quarter
Aug 30
New
Sep 5
First Quarter
Sep 13
Full

Hourly Weather History & Observations

Time (CDT) Temp. Heat Index Dew Point Humidity Pressure Visibility Wind Dir Wind Speed Gust Speed Precip Events Conditions
12:56 AM 66.9 °F - 66.9 °F 100% 30.06 in 10.0 mi Calm Calm - 0.04 in   Clear
1:56 AM 66.9 °F - 66.0 °F 97% 30.05 in 10.0 mi SSE 4.6 mph - 0.04 in   Clear
3:56 AM 66.9 °F - 66.0 °F 97% 30.03 in 10.0 mi Calm Calm - 0.03 in   Partly Cloudy
4:56 AM 66.9 °F - 66.0 °F 97% 30.01 in 10.0 mi Calm Calm - 0.02 in   Overcast
5:56 AM 66.9 °F - 66.9 °F 100% 30.04 in 10.0 mi Calm Calm - 0.02 in   Mostly Cloudy
6:56 AM 68.0 °F - 66.9 °F 96% 30.06 in 10.0 mi Calm Calm - 0.01 in   Partly Cloudy
7:56 AM 71.1 °F - 69.1 °F 93% 30.07 in 10.0 mi South 4.6 mph - 0.02 in   Clear
8:56 AM 75.0 °F - 69.1 °F 82% 30.07 in 10.0 mi SSE 5.8 mph - 0.01 in   Clear
9:27 AM 78.8 °F - 69.8 °F 74% 30.05 in 6.0 mi South 3.5 mph - 0.01 in   Haze
9:56 AM 82.0 °F 86.7 °F 72.0 °F 71% 30.06 in 10.0 mi South 3.5 mph - 0.02 in   Clear
10:56 AM 86.0 °F 93.0 °F 73.0 °F 65% 30.06 in 10.0 mi WNW 8.1 mph - N/A   Mostly Cloudy
11:56 AM 88.0 °F 96.5 °F 73.9 °F 63% 30.06 in 10.0 mi NW 13.8 mph 20.7 mph 0.01 in   Clear
12:30 PM 87.8 °F 95.6 °F 73.4 °F 62% 30.06 in 10.0 mi WNW 12.7 mph 17.3 mph 0.01 in   Partly Cloudy
12:56 PM 89.1 °F 99.1 °F 75.0 °F 63% 30.06 in 10.0 mi NNW 8.1 mph - 0.01 in   Clear
1:56 PM 90.0 °F 100.2 °F 75.0 °F 61% 30.04 in 10.0 mi Variable 5.8 mph - 0.01 in   Mostly Cloudy
2:56 PM 89.1 °F 98.0 °F 73.9 °F 61% 30.02 in 9.0 mi Calm Calm - 0.01 in   Clear
3:56 PM 89.1 °F 100.2 °F 75.9 °F 65% 30.00 in 10.0 mi NNE 5.8 mph - 0.01 in   Mostly Cloudy
4:56 PM 87.1 °F 97.3 °F 75.9 °F 69% 29.99 in 10.0 mi East 9.2 mph - 0.02 in   Mostly Cloudy
5:31 PM 80.6 °F 83.9 °F 69.8 °F 70% 30.00 in 10.0 mi South 12.7 mph - N/A Thunderstorm Overcast
5:46 PM 78.8 °F - 68.0 °F 69% 30.01 in 10.0 mi South 12.7 mph - N/A   Overcast
5:52 PM 78.8 °F - 68.0 °F 69% 30.00 in 10.0 mi SSE 13.8 mph - 0.01 in Thunderstorm Overcast
5:56 PM 78.1 °F - 68.0 °F 71% 30.01 in 10.0 mi SSE 10.4 mph - 0.01 in Thunderstorm Overcast
6:12 PM 77.0 °F - 68.0 °F 74% 30.00 in 10.0 mi SSW 4.6 mph - N/A Thunderstorm Partly Cloudy
6:51 PM 75.2 °F - 69.8 °F 83% 29.97 in 10.0 mi Variable 3.5 mph - 0.00 in   Clear
6:56 PM 75.9 °F - 69.1 °F 79% 29.98 in 10.0 mi Calm Calm - 0.00 in Thunderstorm Partly Cloudy
7:13 PM 75.2 °F - 69.8 °F 83% 30.00 in 8.0 mi SSE 3.5 mph - N/A   Clear
7:56 PM 73.9 °F - 69.1 °F 85% 30.02 in 6.0 mi South 6.9 mph - 0.01 in Thunderstorm Haze
8:18 PM 73.4 °F - 68.0 °F 83% 30.03 in 7.0 mi SSW 3.5 mph - 0.00 in Rain , Thunderstorm Light Rain
8:56 PM 72.0 °F - 69.1 °F 91% 30.02 in 10.0 mi South 6.9 mph - 0.01 in Rain , Thunderstorm Light Rain
9:25 PM 71.6 °F - 69.8 °F 94% 29.99 in 10.0 mi SSE 8.1 mph - 0.00 in Rain Light Rain
9:56 PM 72.0 °F - 70.0 °F 93% 29.96 in 10.0 mi South 10.4 mph - 0.00 in Rain Light Rain
10:56 PM 72.0 °F - 66.9 °F 84% 30.03 in 10.0 mi NNE 5.8 mph - 0.00 in Rain Light Rain
11:56 PM 71.1 °F - 69.1 °F 93% 30.05 in 10.0 mi NNW 4.6 mph - 0.01 in   Clear